| time (UTC) | temp F | wind direction | speed MPH | gust MPH | rain 1hr in | rain 24hr in | rain mn in | humidity % | barometer mb |
| 20260504081758 | 55 | 278 | 1.0 | 3.0 | 0.00 | 0.00 | 0.00 | 53 | 1004.1 |
| 20260504081301 | 56 | 293 | 1.0 | 3.0 | 0.00 | 0.00 | 0.00 | 52 | 1004.1 |
| 20260504080758 | 56 | 329 | 1.0 | 3.0 | 0.00 | 0.00 | 0.00 | 52 | 1004.1 |
| 20260504080255 | 56 | 357 | 1.0 | 2.0 | 0.00 | 0.00 | 0.00 | 52 | 1004.0 |
| 20260504070216 | 55 | 234 | 1.0 | 3.0 | 0.00 | 0.00 | 0.00 | 51 | 1003.8 |
| 20260504060152 | 53 | 142 | 0.0 | 2.0 | 0.00 | 0.00 | 0.00 | 44 | 1004.5 |
| 20260504050153 | 49 | 20 | 0.0 | 2.0 | 0.00 | 0.00 | 0.00 | 53 | 1005.1 |
| 20260504045653 | 48 | 20 | 0.0 | 2.0 | 0.00 | 0.00 | 0.00 | 56 | 1005.0 |
| 20260504045154 | 48 | 0 | 0.0 | 1.0 | 0.00 | 0.00 | 0.00 | 57 | 1005.1 |
| 20260504044652 | 47 | 0 | 0.0 | 1.0 | 0.00 | 0.00 | 0.00 | 58 | 1005.2 |
| 20260504043153 | 46 | 344 | 1.0 | 2.0 | 0.00 | 0.00 | 0.00 | 59 | 1005.3 |
| 20260504042653 | 45 | 344 | 1.0 | 2.0 | 0.00 | 0.00 | 0.00 | 60 | 1005.3 |
| 20260504041156 | 43 | 344 | 0.0 | 1.0 | 0.00 | 0.00 | 0.00 | 72 | 1005.5 |
| 20260504040656 | 43 | 344 | 0.0 | 0.0 | 0.00 | 0.00 | 0.00 | 72 | 1005.6 |
| 20260504040152 | 43 | 344 | 0.0 | 0.0 | 0.00 | 0.00 | 0.00 | 72 | 1005.6 |
| 20260504035654 | 42 | 344 | 0.0 | 0.0 | 0.00 | 0.00 | 0.00 | 71 | 1005.6 |
| 20260504035158 | 42 | 344 | 0.0 | 0.0 | 0.00 | 0.00 | 0.00 | 72 | 1005.6 |
| 20260504034658 | 42 | 344 | 0.0 | 0.0 | 0.00 | 0.00 | 0.00 | 72 | 1005.6 |
| 20260504034157 | 42 | 344 | 0.0 | 0.0 | 0.00 | 0.00 | 0.00 | 72 | 1005.7 |
| 20260504033659 | 42 | 344 | 0.0 | 0.0 | 0.00 | 0.00 | 0.00 | 72 | 1005.7 |
| 20260504033157 | 42 | 344 | 0.0 | 0.0 | 0.00 | 0.00 | 0.00 | 71 | 1005.7 |
| 20260504032654 | 42 | 344 | 0.0 | 0.0 | 0.00 | 0.00 | 0.00 | 70 | 1005.8 |
| 20260504031652 | 42 | 344 | 0.0 | 1.0 | 0.00 | 0.00 | 0.00 | 70 | 1005.7 |
| 20260504031153 | 42 | 344 | 0.0 | 1.0 | 0.00 | 0.00 | 0.00 | 70 | 1005.8 |
| 20260504030654 | 42 | 344 | 0.0 | 1.0 | 0.00 | 0.00 | 0.00 | 70 | 1005.9 |
| 20260504030155 | 42 | 344 | 0.0 | 0.0 | 0.00 | 0.00 | 0.00 | 69 | 1006.0 |
| 20260504025645 | 42 | 344 | 0.0 | 0.0 | 0.00 | 0.00 | 0.00 | 71 | 1005.9 |
| 20260504025150 | 42 | 344 | 0.0 | 0.0 | 0.00 | 0.00 | 0.00 | 69 | 1005.9 |
| 20260504024635 | 42 | 344 | 0.0 | 0.0 | 0.00 | 0.00 | 0.00 | 69 | 1005.8 |
| 20260504024135 | 42 | 344 | 0.0 | 0.0 | 0.00 | 0.00 | 0.00 | 68 | 1005.8 |
| 20260504023634 | 43 | 344 | 0.0 | 0.0 | 0.00 | 0.00 | 0.00 | 68 | 1005.9 |
| 20260504022130 | 43 | 344 | 0.0 | 0.0 | 0.00 | 0.00 | 0.00 | 66 | 1006.0 |
| 20260504021630 | 43 | 344 | 0.0 | 0.0 | 0.00 | 0.00 | 0.00 | 65 | 1006.2 |
| 20260504021129 | 44 | 344 | 0.0 | 0.0 | 0.00 | 0.00 | 0.00 | 66 | 1006.2 |
| 20260504020112 | 45 | 344 | 0.0 | 1.0 | 0.00 | 0.00 | 0.00 | 63 | 1006.3 |
| 20260504015610 | 45 | 344 | 0.0 | 2.0 | 0.00 | 0.00 | 0.00 | 64 | 1006.3 |
| 20260504015104 | 46 | 348 | 0.0 | 2.0 | 0.00 | 0.00 | 0.00 | 60 | 1006.3 |
| 20260504014611 | 46 | 341 | 0.0 | 2.0 | 0.00 | 0.00 | 0.00 | 59 | 1006.3 |
| 20260504013613 | 47 | 334 | 0.0 | 2.0 | 0.00 | 0.00 | 0.00 | 58 | 1006.5 |
| 20260504012107 | 47 | 345 | 1.0 | 2.0 | 0.00 | 0.00 | 0.00 | 58 | 1006.5 |
| 20260504011104 | 47 | 330 | 0.0 | 1.0 | 0.00 | 0.00 | 0.00 | 63 | 1006.7 |
| 20260504010605 | 47 | 330 | 0.0 | 1.0 | 0.00 | 0.00 | 0.00 | 63 | 1006.6 |
| 20260504010106 | 47 | 331 | 0.0 | 1.0 | 0.00 | 0.00 | 0.00 | 60 | 1006.7 |
| 20260504005612 | 48 | 344 | 0.0 | 0.0 | 0.00 | 0.00 | 0.00 | 60 | 1006.7 |
| 20260504005105 | 48 | 344 | 0.0 | 1.0 | 0.00 | 0.00 | 0.00 | 58 | 1006.7 |
| 20260504004604 | 48 | 344 | 0.0 | 2.0 | 0.00 | 0.00 | 0.00 | 56 | 1006.7 |
| 20260504003552 | 49 | 340 | 1.0 | 4.0 | 0.00 | 0.00 | 0.00 | 55 | 1006.6 |
| 20260504003052 | 49 | 355 | 1.0 | 4.0 | 0.00 | 0.00 | 0.00 | 54 | 1006.6 |
| 20260504002555 | 49 | 341 | 1.0 | 2.0 | 0.00 | 0.00 | 0.00 | 53 | 1006.6 |
| 20260504002054 | 49 | 344 | 0.0 | 3.0 | 0.00 | 0.00 | 0.00 | 53 | 1006.7 |
| 20260504001551 | 49 | 334 | 1.0 | 3.0 | 0.00 | 0.00 | 0.00 | 53 | 1006.8 |
| 20260504001056 | 50 | 337 | 1.0 | 5.0 | 0.00 | 0.00 | 0.00 | 53 | 1006.8 |
| 20260504000052 | 50 | 323 | 1.0 | 3.0 | 0.00 | 0.00 | 0.00 | 53 | 1006.8 |
| 20260503235553 | 50 | 299 | 1.0 | 5.0 | 0.00 | 0.00 | 0.00 | 53 | 1006.9 |
| 20260503235053 | 50 | 307 | 2.0 | 5.0 | 0.00 | 0.00 | 0.00 | 53 | 1006.9 |
| 20260503234555 | 51 | 331 | 3.0 | 5.0 | 0.00 | 0.00 | 0.00 | 53 | 1006.9 |
| 20260503234052 | 51 | 354 | 2.0 | 3.0 | 0.00 | 0.00 | 0.00 | 53 | 1007.0 |
| 20260503233551 | 51 | 296 | 1.0 | 3.0 | 0.00 | 0.00 | 0.00 | 54 | 1006.9 |
| 20260503233052 | 51 | 353 | 1.0 | 3.0 | 0.00 | 0.00 | 0.00 | 55 | 1007.0 |
| 20260503232552 | 51 | 326 | 1.0 | 3.0 | 0.00 | 0.00 | 0.00 | 55 | 1006.9 |
| 20260503231055 | 51 | 336 | 2.0 | 3.0 | 0.00 | 0.00 | 0.00 | 56 | 1007.0 |
| 20260503230552 | 51 | 357 | 0.0 | 2.0 | 0.00 | 0.00 | 0.00 | 57 | 1007.1 |
| 20260503230052 | 51 | 353 | 1.0 | 1.0 | 0.00 | 0.00 | 0.00 | 57 | 1007.1 |
| 20260503225552 | 52 | 353 | 1.0 | 2.0 | 0.00 | 0.00 | 0.00 | 56 | 1007.1 |
| 20260503225054 | 52 | 0 | 1.0 | 2.0 | 0.00 | 0.00 | 0.00 | 55 | 1007.1 |
| 20260503224552 | 52 | 340 | 0.0 | 2.0 | 0.00 | 0.00 | 0.00 | 56 | 1007.2 |
| 20260503224052 | 52 | 334 | 1.0 | 2.0 | 0.00 | 0.00 | 0.00 | 56 | 1007.2 |
| 20260503223552 | 52 | 289 | 1.0 | 2.0 | 0.00 | 0.00 | 0.00 | 57 | 1007.2 |
| 20260503223051 | 52 | 300 | 1.0 | 3.0 | 0.00 | 0.00 | 0.00 | 57 | 1007.1 |
| 20260503222552 | 52 | 350 | 1.0 | 3.0 | 0.00 | 0.00 | 0.00 | 58 | 1007.1 |
| 20260503221556 | 52 | 347 | 0.0 | 5.0 | 0.00 | 0.00 | 0.00 | 58 | 1007.2 |
| 20260503221052 | 52 | 330 | 3.0 | 5.0 | 0.00 | 0.00 | 0.00 | 57 | 1007.2 |
| 20260503220555 | 53 | 336 | 2.0 | 3.0 | 0.00 | 0.00 | 0.00 | 58 | 1007.3 |
| 20260503220052 | 53 | 354 | 2.0 | 3.0 | 0.00 | 0.00 | 0.00 | 59 | 1007.3 |
| 20260503215552 | 53 | 333 | 1.0 | 2.0 | 0.00 | 0.00 | 0.00 | 59 | 1007.2 |
| 20260503215052 | 53 | 348 | 1.0 | 3.0 | 0.00 | 0.00 | 0.00 | 60 | 1007.3 |
| 20260503214052 | 53 | 353 | 2.0 | 3.0 | 0.00 | 0.00 | 0.00 | 61 | 1007.3 |
| 20260503213052 | 53 | 0 | 2.0 | 3.0 | 0.00 | 0.00 | 0.00 | 62 | 1007.4 |
| 20260503212552 | 53 | 337 | 2.0 | 3.0 | 0.00 | 0.00 | 0.00 | 62 | 1007.3 |
| 20260503212051 | 53 | 331 | 2.0 | 3.0 | 0.00 | 0.00 | 0.00 | 64 | 1007.3 |
| 20260503211055 | 53 | 333 | 1.0 | 2.0 | 0.00 | 0.00 | 0.00 | 67 | 1007.3 |
| 20260503210552 | 53 | 314 | 2.0 | 4.0 | 0.00 | 0.00 | 0.00 | 67 | 1007.3 |
| 20260503205553 | 53 | 344 | 1.0 | 2.0 | 0.00 | 0.00 | 0.00 | 69 | 1007.3 |
| 20260503205051 | 53 | 334 | 0.0 | 2.0 | 0.00 | 0.00 | 0.00 | 70 | 1007.3 |
| 20260503204552 | 53 | 344 | 0.0 | 1.0 | 0.00 | 0.00 | 0.00 | 73 | 1007.2 |
| 20260503204051 | 53 | 336 | 0.0 | 0.0 | 0.00 | 0.00 | 0.00 | 72 | 1007.3 |
| 20260503203552 | 53 | 336 | 0.0 | 0.0 | 0.00 | 0.00 | 0.00 | 72 | 1007.1 |
| 20260503203055 | 53 | 336 | 0.0 | 0.0 | 0.00 | 0.00 | 0.00 | 72 | 1007.2 |
| 20260503202052 | 53 | 336 | 0.0 | 0.0 | 0.00 | 0.00 | 0.00 | 71 | 1007.3 |
| 20260503201553 | 53 | 336 | 0.0 | 0.0 | 0.00 | 0.00 | 0.00 | 71 | 1007.5 |
| 20260503200555 | 53 | 336 | 0.0 | 0.0 | 0.00 | 0.00 | 0.00 | 72 | 1007.4 |
| 20260503200055 | 53 | 336 | 0.0 | 0.0 | 0.00 | 0.00 | 0.00 | 71 | 1007.4 |
| 20260503195555 | 53 | 336 | 0.0 | 0.0 | 0.00 | 0.00 | 0.00 | 71 | 1007.4 |
| 20260503195052 | 53 | 336 | 0.0 | 0.0 | 0.00 | 0.00 | 0.00 | 71 | 1007.4 |
| 20260503194555 | 53 | 336 | 0.0 | 0.0 | 0.00 | 0.00 | 0.00 | 70 | 1007.4 |
| 20260503194052 | 53 | 336 | 0.0 | 0.0 | 0.00 | 0.00 | 0.00 | 70 | 1007.4 |
| 20260503193552 | 54 | 336 | 0.0 | 0.0 | 0.00 | 0.00 | 0.00 | 70 | 1007.4 |
| 20260503193051 | 54 | 336 | 0.0 | 0.0 | 0.00 | 0.00 | 0.00 | 69 | 1007.4 |
| 20260503192554 | 54 | 336 | 0.0 | 0.0 | 0.00 | 0.00 | 0.00 | 70 | 1007.4 |
| 20260503192052 | 54 | 336 | 0.0 | 0.0 | 0.00 | 0.00 | 0.00 | 69 | 1007.5 |
| 20260503191553 | 54 | 336 | 0.0 | 0.0 | 0.00 | 0.00 | 0.00 | 70 | 1007.6 |
| 20260503191051 | 54 | 336 | 0.0 | 0.0 | 0.00 | 0.00 | 0.00 | 70 | 1007.5 |
| 20260503190052 | 54 | 336 | 0.0 | 0.0 | 0.00 | 0.00 | 0.00 | 71 | 1007.5 |
| 20260503185551 | 54 | 336 | 0.0 | 0.0 | 0.00 | 0.00 | 0.00 | 69 | 1007.5 |
| 20260503183557 | 55 | 336 | 0.0 | 0.0 | 0.00 | 0.00 | 0.00 | 68 | 1007.5 |
| 20260503183051 | 55 | 336 | 0.0 | 0.0 | 0.00 | 0.00 | 0.00 | 67 | 1007.5 |
| 20260503182554 | 55 | 336 | 0.0 | 0.0 | 0.00 | 0.00 | 0.00 | 67 | 1007.4 |
| 20260503182057 | 55 | 336 | 0.0 | 0.0 | 0.00 | 0.00 | 0.00 | 68 | 1007.4 |
| 20260503181552 | 56 | 336 | 0.0 | 0.0 | 0.00 | 0.00 | 0.00 | 67 | 1007.4 |
| 20260503181050 | 56 | 336 | 0.0 | 1.0 | 0.00 | 0.00 | 0.00 | 67 | 1007.4 |
| 20260503180550 | 56 | 336 | 0.0 | 1.0 | 0.00 | 0.00 | 0.00 | 66 | 1007.4 |
| 20260503180049 | 56 | 336 | 0.0 | 1.0 | 0.00 | 0.00 | 0.00 | 64 | 1007.4 |
| 20260503175553 | 56 | 336 | 1.0 | 1.0 | 0.00 | 0.00 | 0.00 | 65 | 1007.4 |
| 20260503174550 | 56 | 309 | 0.0 | 0.0 | 0.00 | 0.00 | 0.00 | 67 | 1007.2 |
| 20260503174051 | 56 | 309 | 0.0 | 0.0 | 0.00 | 0.00 | 0.00 | 66 | 1007.3 |
| 20260503173552 | 56 | 309 | 0.0 | 1.0 | 0.00 | 0.00 | 0.00 | 66 | 1007.2 |
| 20260503173051 | 56 | 309 | 0.0 | 1.0 | 0.00 | 0.00 | 0.00 | 65 | 1007.3 |
| 20260503172555 | 57 | 309 | 0.0 | 1.0 | 0.00 | 0.00 | 0.00 | 65 | 1007.3 |
| 20260503172052 | 57 | 303 | 0.0 | 0.0 | 0.00 | 0.00 | 0.00 | 66 | 1007.3 |
| 20260503171552 | 57 | 303 | 0.0 | 0.0 | 0.00 | 0.00 | 0.00 | 65 | 1007.2 |
| 20260503171054 | 57 | 303 | 0.0 | 0.0 | 0.00 | 0.00 | 0.00 | 64 | 1007.2 |
| 20260503151007 | 60 | 344 | 2.0 | 3.0 | 0.00 | 0.00 | 0.00 | 54 | 1007.4 |
| 20260503150504 | 60 | 283 | 0.0 | 2.0 | 0.00 | 0.00 | 0.00 | 53 | 1007.4 |
| 20260503130955 | 62 | 298 | 3.0 | 7.0 | 0.00 | 0.00 | 0.00 | 52 | 1007.6 |
| 20260503130451 | 62 | 333 | 3.0 | 7.0 | 0.00 | 0.00 | 0.00 | 53 | 1007.6 |
| 20260503110453 | 59 | 298 | 1.0 | 4.0 | 0.00 | 0.00 | 0.00 | 61 | 1007.8 |